Location: Unspecified
(40.7945°N, 0.0000°E)
Time: 15:22:48
(UTC+00:00)

Explorer 11/Cluster Stage 4 - All Passes

Search period start: 23 January 2021 00:00
Search period end: 02 February 2021 00:00
Orbit: 467 x 1258 km, 28.8° (Epoch: 22 January)

Date Brightness Start Highest point End Pass type
(mag) Time Alt. Az. Time Alt. Az. Time Alt. Az.
23 Jan - 00:14:57 10° WSW 00:21:29 32° S 00:28:30 10° SE night (unlit)
23 Jan - 02:04:19 10° WSW 02:09:53 20° SSW 02:15:31 10° SSE night (unlit)
23 Jan - 20:29:38 10° SSW 20:33:52 19° SSE 20:38:38 10° ESE visible
23 Jan - 22:16:03 10° SW 22:21:51 31° S 22:28:31 10° ESE night (unlit)
24 Jan - 00:04:00 10° WSW 00:10:17 30° S 00:17:07 10° SE night (unlit)
24 Jan - 01:53:31 10° WSW 01:58:38 18° SSW 02:03:52 10° SSE night (unlit)
24 Jan - 20:18:34 10° SSW 20:22:44 20° SSE 20:27:29 10° ESE visible
24 Jan - 22:05:07 10° SW 22:10:43 30° S 22:17:12 10° ESE night (unlit)
24 Jan - 23:53:06 10° WSW 23:59:06 28° S 00:05:41 10° SE night (unlit)
25 Jan - 01:42:53 10° WSW 01:47:25 16° SSW 01:52:05 10° S night (unlit)
25 Jan - 20:07:33 10° SSW 20:11:37 20° SSE 20:16:19 10° ESE visible
25 Jan - 21:54:13 10° SW 21:59:35 30° S 22:05:53 10° ESE night (unlit)
25 Jan - 23:42:16 10° WSW 23:47:55 26° SSW 23:54:12 10° SE night (unlit)
26 Jan - 01:32:25 10° SW 01:36:11 14° SSW 01:40:05 10° S night (unlit)
26 Jan - 19:56:36 10° SSW 20:00:33 21° SSE 20:05:08 10° ESE visible
26 Jan - 21:43:22 10° SW 21:48:30 28° S 21:54:31 10° ESE night (unlit)
26 Jan - 23:31:29 10° WSW 23:36:46 24° SSW 23:42:39 10° SE night (unlit)
27 Jan - 01:22:19 10° SW 01:24:59 12° SSW 01:27:43 10° S night (unlit)
27 Jan - 19:45:41 10° SSW 19:49:30 21° SSE 19:53:55 10° ESE visible
27 Jan - 21:32:34 10° SW 21:37:24 27° S 21:43:08 10° SE night (unlit)
27 Jan - 23:20:48 10° WSW 23:25:37 21° SSW 23:31:02 10° SSE night (unlit)
28 Jan - 19:34:49 10° SW 19:38:27 21° SSE 19:42:43 10° ESE visible
28 Jan - 21:21:48 10° SW 21:26:21 25° S 21:31:44 10° SE visible
28 Jan - 23:10:11 10° WSW 23:14:31 19° SSW 23:19:19 10° SSE night (unlit)
29 Jan - 19:23:58 10° SW 19:27:27 20° S 19:31:30 10° ESE visible
29 Jan - 21:11:05 10° SW 21:15:19 23° S 21:20:18 10° SE visible
29 Jan - 22:59:43 10° SW 23:03:25 16° SSW 23:07:29 10° SSE night (unlit)
30 Jan - 19:13:10 10° SW 19:16:28 20° S 19:20:16 10° SE visible
30 Jan - 21:00:24 10° SW 21:04:19 21° S 21:08:50 10° SE visible
30 Jan - 22:49:28 10° SW 22:52:20 13° SSW 22:55:26 10° S night (unlit)
31 Jan - 19:02:24 10° SW 19:05:30 19° S 19:09:03 10° SE visible
31 Jan - 20:49:47 10° SW 20:53:18 19° S 20:57:19 10° SE visible
31 Jan - 22:39:45 10° SSW 22:41:16 11° SSW 22:42:51 10° S night (unlit)
01 Feb - 17:06:28 10° S 17:07:06 10° SSE 17:07:43 10° SSE daylight
01 Feb - 18:51:39 10° SW 18:54:33 18° S 18:57:50 10° SE visible
01 Feb - 20:39:16 10° SW 20:42:19 16° S 20:45:45 10° SSE visible
